This is the latest recevied weather packets stored in our database for station/object DB0FN-10. If no packets are shown the sender has not sent any weather packets the latest 10 day(s).
| Time | Temp. | Humidity | Pressure | Rain* | Wind** | Luminosity | Snow |
|---|---|---|---|---|---|---|---|
| 1777238127 | 17.78° C | 31% | 1024.5 hPa | - | - | - | - |
| 1777237227 | 17.78° C | 30% | 1024.5 hPa | - | - | - | - |
| 1777236327 | 18.33° C | 30% | 1024.6 hPa | - | - | - | - |
| 1777235427 | 18.33° C | 29% | 1024.5 hPa | - | - | - | - |
| 1777234527 | 18.33° C | 29% | 1024.5 hPa | - | - | - | - |
| 1777233627 | 18.33° C | 29% | 1024.5 hPa | - | - | - | - |
| 1777232727 | 18.33° C | 28% | 1024.5 hPa | - | - | - | - |
| 1777231827 | 18.33° C | 29% | 1024.3 hPa | - | - | - | - |
| 1777230927 | 18.33° C | 29% | 1024.2 hPa | - | - | - | - |
| 1777230027 | 18.89° C | 28% | 1024 hPa | - | - | - | - |
| 1777229127 | 18.89° C | 28% | 1023.9 hPa | - | - | - | - |
| 1777228227 | 19.44° C | 28% | 1023.8 hPa | - | - | - | - |
| 1777227327 | 19.44° C | 28% | 1023.7 hPa | - | - | - | - |
| 1777226426 | 20° C | 27% | 1023.6 hPa | - | - | - | - |
| 1777225526 | 20° C | 25% | 1023.6 hPa | - | - | - | - |
| 1777224626 | 20° C | 25% | 1023.5 hPa | - | - | - | - |
| 1777223726 | 20.56° C | 25% | 1023.5 hPa | - | - | - | - |
| 1777222826 | 21.11° C | 24% | 1023.5 hPa | - | - | - | - |
| 1777221926 | 21.11° C | 23% | 1023.5 hPa | - | - | - | - |
| 1777221026 | 21.11° C | 23% | 1023.6 hPa | - | - | - | - |
| 1777220126 | 20.56° C | 22% | 1023.7 hPa | - | - | - | - |
| 1777219226 | 21.11° C | 21% | 1023.8 hPa | - | - | - | - |
| 1777218326 | 21.11° C | 22% | 1023.7 hPa | - | - | - | - |
| 1777217426 | 21.11° C | 21% | 1023.7 hPa | - | - | - | - |
| 1777216526 | 21.11° C | 22% | 1023.7 hPa | - | - | - | - |
* Rain since midnight (hover to see other rain measurements)
** Current wind speed in m/s (hover to see current wind gust speed)